Temperature
17 17 17 17 17 17 17 17 17 17 17 17 17 18 18 18 18 18 18 18 18 18 18 18 18 18 18 18 18 18 18 18 18 18 18 18 18 18 18 18 18 18 18
17 17 17 17 17 17 17 17 17 17 17 17 17 18 18 18 18 18 18 18 18 18 18 18 18 18 18 18 18 18 18 18 18 18 18 18 18 18 18 18 18 18 18
17 17 17 17 17 17 17 17 17 17 17 17 17 17 17 18 18 18 18 18 18 18 18 18 18 18 18 18 18 18 18 18 18 18 18 18 18 18 18 18 18 18 18
17 17 17 17 17 17 17 17 17 17 17 17 17 17 17 17 17 17 18 18 18 18 17 17 17 17 17 17 17 17 17 17 18 18 18 18 18 18 18 18 18 18 18
17 17 17 17 17 17 17 17 17 17 17 17 17 17 17 17 17 17 17 17 17 17 17 17 17 17 17 17 17 17 17 17 17 17 17 17 17 17 17 17 17 17 17
17 17 17 17 17 17 17 17 17 17 17 17 17 17 17 17 17 17 17 17 17 17 17 17 17 17 17 17 17 17 17 17 17 17 17 17 17 17 17 17 17 17 17
17 17 17 17 17 17 17 17 17 17 17 17 17 17 17 17 17 17 17 17 17 17 17 17 17 17 17 17 17 17 17 17 17 17 17 17 17 17 17 17 17 17 17
17 17 17 17 17 17 17 17 17 17 17 17 17 17 17 17 17 17 17 17 17 16 16 16 16 16 16 17 17 17 17 17 17 17 17 17 17 17 17 17 17 17 17
17 17 17 17 16 16 16 16 16 16 16 16 16 16 16 16 17 16 16 16 16 16 16 16 16 16 16 16 17 17 16 16 16 16 16 16 16 16 17 17 17 17 17
16 16 16 16 16 16 16 16 16 16 16 16 16 16 16 16 16 16 16 16 16 16 16 16 16 16 16 16 16 16 16 16 16 16 16 16 16 16 16 16 16 17 17
16 16 16 16 16 16 16 16 16 16 16 16 16 16 16 16 16 16 16 16 16 16 16 16 16 16 16 16 16 16 16 16 16 16 16 16 16 16 16 16 16 16 16
17 16 16 16 16 16 16 16 16 16 16 16 16 16 16 16 16 16 16 16 16 16 16 16 16 16 16 16 16 16 16 16 16 16 16 16 16 16 16 16 16 16 16
17 16 16 16 16 16 16 16 16 16 16 16 16 16 16 16 16 16 16 16 16 16 16 16 16 16 15 15 16 16 15 15 16 16 16 16 15 15 16 16 16 16 16
17 17 16 16 16 16 16 16 16 16 16 16 16 16 16 15 15 15 15 15 15 16 16 16 15 15 15 15 15 15 15 15 15 15 15 15 15 15 15 15 15 15 16
17 17 17 16 16 16 16 16 16 16 16 16 15 15 15 15 15 15 15 15 15 15 15 15 15 15 15 15 15 15 15 15 15 15 15 15 15 15 15 15 15 15 15
17 17 17 16 16 16 16 16 16 16 15 15 15 15 15 15 15 15 15 15 15 15 15 15 15 15 15 15 15 15 15 15 15 15 15 15 15 15 15 15 15 15 15
17 17 17 16 16 16 16 16 16 16 15 15 15 15 15 15 15 15 15 15 15 15 15 15 15 14 14 14 14 14 14 14 14 14 14 14 14 15 15 15 15 15 15
17 17 17 17 16 16 16 16 16 15 15 15 15 15 15 15 15 15 15 15 15 15 14 14 14 14 14 14 14 14 14 14 14 14 14 14 14 14 14 14 14 14 14
17 17 17 17 16 16 16 16 15 15 15 15 15 15 15 15 15 14 14 14 14 14 14 14 14 14 14 14 14 14 14 13 14 14 14 14 14 14 14 14 14 14 14
17 17 17 17 16 16 16 16 16 15 15 15 15 15 15 15 15 14 14 14 14 14 14 14 14 14 13 14 13 13 13 13 13 13 13 13 13 13 13 13 14 14 14
17 17 17 17 16 16 16 16 16 15 15 15 15 15 15 15 14 14 14 14 14 14 14 14 14 13 13 13 13 13 13 13 13 13 13 13 13 13 13 13 13 13 13
17 17 17 17 16 16 16 16 16 15 15 15 15 15 15 14 14 14 14 14 14 14 13 13 13 13 13 13 13 13 13 13 13 13 13 13 12 12 13 13 13 13 13
17 17 17 16 16 16 16 16 15 15 15 15 15 15 15 14 14 14 14 14 14 13 13 13 13 13 13 13 12 12 12 12 12 12 12 12 12 12 12 12 12 12 12
17 17 17 16 16 16 16 15 15 15 15 15 15 15 15 14 14 14 14 14 13 13 13 13 13 13 13 12 12 12 12 12 12 12 12 12 12 12 12 12 12 12 12
17 17 17 16 16 16 15 15 15 15 15 15 15 15 14 14 14 14 14 14 13 13 13 13 13 12 12 12 12 12 12 12 12 11 12 12 12 12 12 12 12 12 12
17 17 16 16 16 16 15 15 15 15 15 15 15 14 14 14 14 14 14 13 13 13 13 13 12 12 12 12 12 12 11 11 11 11 11 11 11 11 11 11 11 11 11
Wind_Speed
2 3 2 4 6 8 8 9 11 12 12 13 13 13 13 13 13 13 14 14 14 14 13 13 12 12 12 12 11 11 11 10 10 10 10 9 10 10 9 9 8 7 9
1 0 2 5 7 8 8 9 11 12 12 12 12 12 12 12 12 13 13 13 13 13 13 13 13 12 12 12 11 11 10 10 10 10 9 9 9 9 9 8 8 7 8
1 2 3 5 7 8 9 10 10 11 11 11 12 12 12 12 12 12 12 13 13 13 13 12 12 12 12 12 11 11 10 10 9 9 8 7 7 8 8 8 8 8 8
3 3 4 6 8 9 9 10 10 10 10 11 11 11 12 12 12 12 12 12 12 12 12 12 12 12 11 11 10 10 10 10 10 9 7 7 6 8 8 7 7 7 8
3 3 4 6 8 9 9 9 9 9 10 10 10 10 11 11 11 12 12 11 12 12 12 11 11 11 11 10 10 9 10 10 10 9 7 7 7 8 8 7 7 7 7
3 4 5 6 7 8 9 9 9 9 9 10 10 10 11 11 11 11 11 11 11 11 11 11 11 11 10 10 9 9 9 9 8 8 7 7 6 7 8 7 7 7 8
3 3 4 6 7 8 8 8 9 9 9 10 9 10 10 10 10 11 11 11 11 11 11 10 10 10 10 10 9 8 8 8 8 7 6 6 6 7 8 8 8 8 7
3 4 4 5 6 7 7 8 9 9 9 9 9 9 10 10 10 10 10 10 10 10 10 10 10 10 11 10 9 8 8 8 7 6 6 5 6 7 7 7 7 7 7
4 4 4 4 5 6 7 7 8 8 8 8 8 8 9 9 9 9 10 10 10 10 10 11 11 11 11 12 11 10 10 10 9 6 6 5 5 7 7 7 7 7 7
3 3 3 4 4 5 6 6 7 7 7 8 8 8 9 9 9 9 9 9 10 10 11 11 11 11 12 12 12 11 11 10 9 8 6 5 6 7 7 7 6 6 6
2 1 2 3 3 4 4 5 6 6 7 7 8 8 9 8 9 9 9 10 10 11 11 11 12 12 12 12 12 12 10 8 8 7 6 6 6 7 7 7 6 6 6
3 2 1 1 2 3 3 5 5 5 6 6 6 7 7 8 8 8 9 10 10 11 11 12 12 12 11 10 10 10 8 8 7 6 6 6 6 6 7 7 6 6 6
4 3 2 2 1 2 2 3 4 4 5 5 6 6 6 7 7 8 7 8 9 9 9 10 10 9 9 8 8 8 8 7 6 6 7 7 7 7 7 7 6 6 6
4 3 3 2 2 2 2 2 3 3 3 3 4 5 5 4 4 5 5 6 7 6 7 7 7 8 8 8 8 7 7 6 6 7 8 9 8 8 7 7 7 6 6
4 4 3 3 3 2 2 1 2 2 3 3 4 4 5 3 3 3 4 5 5 6 5 5 5 6 6 7 7 7 6 7 7 7 7 10 10 9 8 7 7 7 6
5 5 4 4 3 3 2 2 2 2 2 3 3 3 4 4 3 3 3 4 4 5 5 5 5 4 4 5 6 6 6 7 7 7 8 9 11 11 10 8 7 7 6
6 5 5 5 4 4 3 2 2 2 3 2 2 2 3 4 4 3 3 3 3 5 5 5 5 5 4 4 5 5 5 6 7 7 8 8 8 10 10 9 8 7 6
5 5 5 5 5 4 3 3 2 2 3 2 2 2 3 4 4 4 3 2 3 5 4 3 3 4 4 4 4 4 4 5 6 7 7 8 8 8 9 10 9 8 6
6 5 5 4 5 4 3 2 3 3 2 2 2 2 3 4 4 4 3 2 4 4 3 3 3 3 3 3 3 3 4 4 4 5 6 7 7 7 8 9 9 9 7
4 5 5 4 4 4 3 2 2 2 1 1 1 2 3 4 4 5 3 3 4 3 3 3 3 3 2 2 3 4 3 3 4 4 4 6 7 8 8 8 8 7 9
4 4 5 5 4 4 2 2 2 1 0 0 0 2 3 4 5 5 3 3 3 3 2 3 3 3 3 2 3 3 3 3 4 4 4 4 6 7 8 8 7 7 7
6 5 5 5 5 5 3 3 2 2 1 0 0 1 2 3 4 4 4 2 2 3 3 3 2 2 2 2 2 2 2 3 3 4 4 4 4 5 6 7 7 7 7
7 7 7 6 5 5 3 3 3 3 2 1 0 0 0 2 3 4 4 3 2 3 2 2 2 3 1 1 2 2 2 1 2 3 3 4 4 4 4 5 7 7 7
8 6 6 6 5 4 5 4 5 3 3 3 2 1 1 1 2 3 4 4 3 2 2 2 2 2 3 1 1 2 1 2 1 1 3 3 3 4 4 4 5 6 7
6 6 5 5 5 5 5 5 5 3 2 1 1 1 1 0 1 2 3 4 3 2 2 2 2 2 2 2 2 1 1 2 1 1 1 3 3 3 3 3 3 4 6
4 4 4 5 5 5 5 5 5 5 3 2 2 2 1 1 1 1 3 3 3 2 2 2 2 3 2 2 2 2 2 2 1 1 1 1 2 2 3 2 3 3 4
Wind_Direction
290 297 26 73 73 74 76 79 81 80 80 80 78 75 74 74 75 76 76 76 75 76 77 79 80 79 79 83 86 90 91 90 88 89 88 89 89 90 90 91 89 88 99
216 292 81 80 82 82 82 83 82 80 80 80 79 77 76 76 76 76 76 75 74 73 73 74 75 77 77 79 81 84 86 87 87 85 83 83 88 90 89 91 93 94 98
117 87 90 89 88 86 86 86 83 81 80 79 79 76 75 74 73 73 76 76 75 73 71 69 71 72 73 75 76 78 80 84 82 79 74 68 80 89 89 90 93 95 94
109 92 95 94 92 89 88 89 87 83 81 79 76 74 73 72 71 71 73 74 74 74 72 70 69 69 69 71 72 75 79 81 79 75 66 61 72 84 84 85 90 90 89
94 87 95 96 92 89 90 90 89 84 81 78 75 74 72 71 69 68 70 72 71 70 70 69 67 66 66 67 68 73 79 80 73 67 64 62 68 77 77 75 81 87 88
93 84 93 95 93 91 93 93 88 85 81 79 76 75 73 71 68 66 67 69 69 68 68 67 66 64 61 62 65 73 78 79 73 67 64 63 67 79 80 75 76 82 84
104 81 88 95 93 91 91 90 88 83 81 81 77 75 75 73 70 68 66 66 66 65 64 65 65 62 61 58 60 69 76 77 72 67 61 60 68 77 77 74 73 80 81
105 81 79 96 96 91 92 91 89 84 82 80 76 75 73 72 70 67 66 65 62 61 62 62 62 60 56 54 56 65 73 73 69 63 59 58 69 74 73 68 71 73 76
83 74 60 66 81 86 88 91 88 86 82 78 74 74 72 68 66 65 65 65 64 61 60 59 60 59 57 56 56 64 72 70 63 55 56 56 69 72 76 72 70 70 71
73 67 60 58 66 68 74 86 88 86 83 77 73 72 71 64 58 57 57 59 61 62 60 57 58 58 58 59 60 66 69 64 55 49 44 54 68 68 68 70 69 67 67
109 66 63 58 64 68 67 73 74 76 76 70 66 67 66 58 53 52 56 58 59 60 59 55 57 56 55 55 58 61 60 56 52 44 40 50 64 68 67 66 66 64 64
177 186 132 100 75 70 69 65 59 63 65 65 64 66 67 62 57 57 56 56 57 57 57 55 55 53 50 48 50 53 53 49 46 37 39 48 62 70 65 62 62 61 62
183 180 172 159 106 82 67 72 64 64 65 64 65 70 72 64 58 55 54 50 50 52 52 51 51 50 51 49 48 49 49 46 35 31 35 45 53 59 58 58 59 58 60
169 186 179 161 132 101 94 84 84 76 73 69 69 78 79 68 58 56 58 54 53 54 54 53 55 51 51 50 50 48 46 44 34 29 33 42 45 49 49 49 52 56 56
178 188 175 155 150 131 99 90 96 83 82 85 79 82 91 90 70 65 62 61 58 58 61 58 58 52 45 42 47 50 46 44 39 35 32 37 39 39 39 44 45 46 53
188 188 172 160 156 135 123 118 102 96 92 86 84 88 97 100 94 79 65 63 61 62 65 66 60 56 45 45 43 44 44 44 42 40 35 33 34 35 37 43 45 47 51
189 184 174 170 156 146 145 143 117 110 105 89 93 99 102 105 105 99 84 69 63 69 72 70 60 57 52 48 42 37 40 41 42 39 37 33 29 30 33 36 39 49 53
175 175 180 171 158 157 152 136 117 114 107 99 106 108 110 115 114 105 91 75 72 74 74 69 59 60 50 47 43 32 31 34 37 37 39 35 33 30 29 30 35 44 54
176 174 168 158 158 158 144 123 109 100 94 97 100 107 114 120 118 113 100 89 82 77 66 70 60 64 64 52 51 42 31 31 25 32 32 31 32 32 30 27 32 39 47
171 166 164 155 150 141 123 96 78 69 60 70 94 133 131 128 126 119 108 96 94 82 65 68 75 56 62 57 61 48 29 26 29 30 25 28 29 31 33 32 32 33 39
162 162 168 164 162 148 146 144 130 141 100 47 83 141 139 137 134 126 111 99 96 96 97 97 92 72 49 37 58 32 15 23 32 25 22 26 24 26 35 36 37 37 37
179 182 179 180 176 174 177 168 152 143 161 201 0 91 144 146 145 143 131 126 119 108 95 92 93 89 49 39 79 74 14 355 5 16 18 26 19 25 31 32 35 34 39
191 194 192 189 183 179 158 122 99 78 56 38 355 310 223 164 157 150 146 134 134 134 137 135 121 120 118 36 57 110 127 239 316 344 6 19 19 26 25 26 31 29 34
204 198 193 188 181 175 160 156 156 164 190 213 208 216 230 170 165 156 148 142 143 142 146 166 144 129 127 116 47 51 109 152 150 330 339 359 16 26 23 24 22 25 30
197 190 192 187 181 177 175 175 174 179 197 192 159 171 206 230 171 156 152 146 149 156 164 162 140 132 131 141 141 129 90 66 86 141 294 332 355 5 16 19 17 17 20
180 179 179 182 187 182 184 184 185 185 180 166 190 199 212 228 233 177 155 158 159 162 170 170 159 148 147 141 148 150 149 145 176 159 200 282 318 332 357 14 11 3 9
Height
1516 1516 1516 1516 1515 1515 1515 1515 1515 1514 1514 1514 1514 1514 1514 1514 1514 1514 1514 1513 1513 1513 1514 1515 1516 1516 1517 1517 1518 1518 1519 1519 1520 1520 1520 1521 1521 1521 1521 1522 1522 1522 1523
1517 1517 1517 1517 1517 1517 1517 1517 1516 1516 1516 1516 1516 1516 1516 1516 1516 1516 1516 1516 1516 1516 1516 1517 1517 1518 1518 1519 1519 1520 1520 1521 1521 1521 1522 1522 1522 1522 1523 1523 1524 1524 1524
1518 1518 1518 1518 1518 1518 1518 1518 1518 1518 1518 1518 1518 1518 1518 1518 1518 1518 1518 1518 1518 1518 1518 1519 1519 1519 1520 1520 1521 1521 1522 1522 1522 1523 1523 1523 1523 1524 1524 1524 1524 1525 1525
1519 1519 1519 1519 1519 1519 1519 1520 1520 1520 1520 1520 1520 1520 1520 1520 1520 1520 1520 1520 1520 1520 1520 1521 1521 1521 1521 1522 1522 1522 1523 1523 1524 1524 1524 1524 1524 1525 1525 1525 1525 1526 1526
1520 1520 1520 1520 1521 1521 1521 1521 1521 1521 1521 1521 1522 1522 1521 1522 1522 1522 1521 1522 1522 1522 1522 1522 1522 1523 1523 1523 1523 1524 1524 1524 1524 1525 1525 1525 1525 1526 1526 1526 1526 1526 1526
1521 1521 1522 1522 1522 1522 1522 1522 1523 1523 1523 1523 1523 1523 1523 1523 1523 1523 1523 1523 1523 1523 1524 1524 1524 1524 1524 1524 1524 1524 1525 1525 1525 1526 1526 1526 1526 1527 1527 1527 1527 1527 1527
1522 1523 1523 1523 1523 1524 1524 1524 1524 1524 1524 1524 1524 1525 1525 1525 1525 1525 1525 1525 1525 1525 1525 1525 1525 1525 1525 1525 1525 1525 1525 1525 1526 1526 1526 1527 1527 1527 1527 1527 1527 1527 1527
1524 1524 1524 1525 1525 1525 1525 1525 1526 1526 1526 1526 1526 1526 1526 1526 1526 1526 1526 1526 1526 1526 1526 1526 1526 1526 1525 1525 1524 1524 1525 1525 1526 1527 1527 1527 1528 1528 1528 1528 1528 1528 1528
1525 1526 1526 1526 1526 1527 1527 1527 1527 1527 1528 1528 1528 1528 1528 1528 1528 1528 1528 1528 1528 1527 1527 1527 1527 1527 1526 1526 1525 1524 1524 1526 1527 1527 1528 1528 1528 1528 1528 1528 1528 1528 1528
1527 1527 1527 1528 1528 1528 1528 1529 1529 1529 1529 1529 1529 1529 1529 1529 1529 1529 1529 1529 1529 1529 1529 1528 1528 1528 1527 1527 1526 1525 1525 1527 1527 1528 1528 1529 1529 1529 1529 1529 1528 1528 1528
1528 1528 1529 1529 1529 1530 1530 1530 1530 1530 1530 1531 1531 1531 1530 1530 1530 1530 1530 1530 1530 1530 1530 1530 1529 1529 1529 1528 1528 1528 1528 1528 1528 1529 1529 1529 1529 1529 1529 1528 1528 1528 1528
1528 1529 1530 1530 1530 1531 1531 1531 1531 1532 1532 1532 1532 1532 1532 1532 1532 1532 1532 1532 1531 1531 1531 1530 1530 1530 1530 1529 1529 1529 1529 1529 1530 1530 1530 1530 1530 1529 1529 1529 1528 1528 1528
1529 1530 1530 1531 1532 1532 1532 1532 1533 1533 1533 1533 1533 1533 1533 1533 1533 1533 1532 1532 1532 1532 1532 1532 1531 1531 1531 1531 1531 1531 1531 1531 1531 1530 1530 1530 1530 1530 1529 1529 1528 1528 1528
1529 1530 1531 1532 1532 1533 1533 1533 1533 1534 1534 1534 1534 1534 1534 1533 1533 1533 1533 1533 1533 1533 1533 1532 1532 1532 1532 1532 1532 1532 1531 1531 1531 1531 1531 1531 1530 1530 1529 1529 1528 1528 1527
1530 1531 1531 1532 1533 1533 1534 1534 1534 1534 1535 1535 1535 1535 1534 1534 1534 1534 1534 1534 1533 1533 1533 1533 1533 1533 1532 1532 1532 1532 1532 1532 1532 1531 1531 1531 1530 1530 1529 1528 1528 1527 1527
1530 1531 1532 1532 1533 1534 1534 1535 1535 1535 1535 1535 1535 1535 1535 1535 1535 1534 1534 1534 1534 1534 1533 1533 1533 1533 1533 1533 1533 1533 1532 1532 1532 1532 1531 1531 1530 1530 1529 1528 1528 1527 1527
1529 1531 1532 1533 1533 1534 1534 1535 1535 1535 1535 1536 1536 1535 1535 1535 1535 1535 1535 1534 1534 1534 1534 1534 1533 1533 1533 1533 1533 1533 1532 1532 1532 1532 1531 1531 1530 1530 1529 1528 1528 1527 1526
1529 1530 1532 1532 1533 1534 1534 1535 1535 1536 1536 1536 1536 1536 1536 1536 1535 1535 1535 1535 1534 1534 1534 1534 1533 1533 1533 1533 1533 1533 1532 1532 1532 1532 1531 1531 1530 1530 1529 1528 1528 1527 1526
1528 1530 1531 1532 1533 1534 1534 1535 1535 1536 1536 1536 1536 1536 1536 1536 1536 1535 1535 1535 1534 1534 1534 1533 1533 1533 1533 1533 1533 1532 1532 1532 1532 1532 1531 1531 1530 1529 1529 1528 1528 1527 1526
1528 1529 1530 1531 1532 1533 1534 1534 1535 1535 1535 1536 1536 1536 1536 1536 1536 1535 1535 1534 1534 1534 1533 1533 1533 1533 1533 1533 1532 1532 1532 1532 1531 1531 1531 1531 1530 1529 1529 1528 1528 1527 1527
1526 1528 1529 1530 1531 1532 1533 1533 1534 1534 1535 1535 1535 1535 1535 1535 1535 1535 1535 1534 1534 1533 1533 1533 1533 1532 1532 1532 1532 1532 1532 1532 1531 1531 1531 1530 1530 1529 1529 1528 1528 1528 1527
1524 1526 1527 1528 1530 1531 1531 1532 1533 1534 1534 1535 1535 1535 1535 1535 1535 1534 1534 1534 1533 1533 1533 1532 1532 1532 1532 1532 1532 1532 1532 1533 1531 1531 1531 1530 1530 1529 1529 1528 1528 1528 1527
1522 1523 1525 1526 1528 1529 1530 1531 1532 1533 1533 1534 1534 1534 1534 1534 1534 1534 1533 1533 1533 1532 1532 1532 1532 1532 1531 1532 1532 1532 1532 1531 1531 1531 1530 1530 1529 1529 1529 1529 1528 1528 1528
1519 1521 1523 1525 1526 1527 1528 1529 1530 1530 1531 1532 1532 1533 1533 1533 1533 1533 1532 1532 1532 1532 1531 1531 1531 1531 1531 1531 1531 1531 1532 1531 1531 1530 1530 1529 1529 1529 1529 1529 1528 1528 1528
1517 1519 1521 1523 1524 1525 1527 1527 1528 1529 1530 1530 1531 1531 1532 1532 1532 1531 1531 1531 1531 1531 1530 1530 1530 1530 1530 1530 1530 1530 1531 1530 1530 1530 1529 1529 1529 1528 1528 1528 1528 1528 1528
1515 1517 1518 1520 1521 1523 1524 1525 1526 1527 1528 1529 1529 1529 1530 1530 1530 1530 1530 1530 1530 1529 1529 1529 1529 1529 1529 1529 1529 1529 1530 1529 1529 1529 1529 1528 1527 1527 1527 1527 1527 1527 1527